QPF
0.00 0.00 0.00 0.00 0.00 0.00 0.00 0.00 0.00 0.00 0.00 0.00 0.00 0.00 0.00 0.00 0.00 0.00 0.00 0.00 0.00 0.00 0.00 0.00 0.00 0.00 0.00 0.00 0.00 0.00 0.00 0.00 0.00 0.00 0.00 0.00 0.00 0.00 0.00 0.00 0.00 0.00 0.00
0.00 0.00 0.00 0.00 0.00 0.00 0.00 0.00 0.00 0.00 0.00 0.00 0.00 0.00 0.00 0.00 0.00 0.00 0.00 0.00 0.00 0.00 0.00 0.00 0.00 0.00 0.00 0.00 0.00 0.00 0.00 0.00 0.00 0.00 0.00 0.00 0.00 0.00 0.00 0.00 0.00 0.00 0.00
0.00 0.00 0.00 0.00 0.00 0.00 0.00 0.00 0.00 0.00 0.00 0.00 0.00 0.00 0.00 0.00 0.00 0.00 0.00 0.00 0.00 0.00 0.00 0.00 0.00 0.00 0.00 0.00 0.00 0.00 0.00 0.00 0.00 0.00 0.00 0.00 0.00 0.00 0.00 0.00 0.00 0.00 0.00
0.00 0.00 0.00 0.00 0.00 0.00 0.00 0.00 0.00 0.00 0.00 0.00 0.00 0.00 0.00 0.00 0.00 0.00 0.00 0.00 0.00 0.00 0.00 0.00 0.00 0.00 0.00 0.00 0.01 0.01 0.01 0.01 0.01 0.01 0.01 0.00 0.00 0.00 0.01 0.01 0.00 0.00 0.00
0.00 0.00 0.00 0.00 0.00 0.00 0.00 0.00 0.00 0.00 0.00 0.00 0.00 0.00 0.00 0.00 0.00 0.00 0.00 0.00 0.00 0.00 0.00 0.00 0.00 0.00 0.01 0.01 0.01 0.01 0.01 0.02 0.02 0.02 0.02 0.01 0.01 0.01 0.01 0.01 0.01 0.01 0.01
0.00 0.00 0.00 0.00 0.00 0.00 0.00 0.00 0.00 0.00 0.00 0.00 0.00 0.00 0.00 0.00 0.00 0.00 0.00 0.00 0.00 0.00 0.01 0.00 0.01 0.01 0.01 0.01 0.02 0.03 0.04 0.04 0.04 0.04 0.03 0.02 0.01 0.01 0.01 0.01 0.01 0.02 0.01
0.00 0.00 0.00 0.00 0.00 0.00 0.00 0.00 0.00 0.00 0.00 0.00 0.00 0.00 0.00 0.00 0.00 0.00 0.00 0.01 0.01 0.01 0.01 0.01 0.01 0.01 0.01 0.01 0.01 0.02 0.03 0.04 0.05 0.06 0.06 0.04 0.02 0.01 0.02 0.04 0.03 0.02 0.00
0.00 0.00 0.00 0.00 0.00 0.00 0.00 0.00 0.00 0.00 0.00 0.00 0.00 0.00 0.00 0.00 0.00 0.00 0.01 0.01 0.01 0.01 0.01 0.01 0.01 0.01 0.01 0.01 0.01 0.01 0.01 0.01 0.02 0.04 0.05 0.05 0.04 0.04 0.04 0.05 0.04 0.05 0.03
0.00 0.00 0.00 0.00 0.00 0.00 0.00 0.00 0.00 0.00 0.00 0.00 0.00 0.00 0.00 0.00 0.00 0.00 0.01 0.01 0.01 0.01 0.00 0.00 0.01 0.01 0.01 0.02 0.03 0.02 0.02 0.01 0.01 0.02 0.03 0.04 0.05 0.07 0.07 0.09 0.11 0.11 0.07
0.00 0.00 0.00 0.00 0.00 0.00 0.00 0.00 0.00 0.00 0.00 0.00 0.00 0.00 0.00 0.00 0.00 0.00 0.01 0.01 0.01 0.01 0.01 0.01 0.01 0.02 0.02 0.04 0.04 0.03 0.03 0.01 0.01 0.01 0.02 0.02 0.03 0.05 0.09 0.13 0.11 0.10 0.06
0.00 0.00 0.00 0.00 0.00 0.00 0.00 0.00 0.00 0.00 0.00 0.00 0.00 0.00 0.00 0.00 0.00 0.00 0.01 0.01 0.02 0.02 0.03 0.02 0.02 0.03 0.03 0.04 0.05 0.04 0.04 0.04 0.04 0.03 0.02 0.02 0.02 0.02 0.03 0.07 0.12 0.11 0.07
0.00 0.00 0.00 0.00 0.00 0.00 0.00 0.00 0.00 0.00 0.00 0.00 0.00 0.00 0.00 0.00 0.00 0.00 0.01 0.02 0.04 0.04 0.03 0.02 0.02 0.03 0.04 0.05 0.05 0.05 0.06 0.07 0.06 0.06 0.05 0.03 0.02 0.01 0.02 0.02 0.05 0.07 0.05
0.00 0.00 0.00 0.00 0.00 0.00 0.00 0.00 0.00 0.00 0.00 0.00 0.00 0.00 0.00 0.00 0.00 0.01 0.02 0.02 0.03 0.03 0.02 0.03 0.04 0.04 0.05 0.04 0.04 0.04 0.04 0.04 0.05 0.05 0.04 0.02 0.01 0.01 0.02 0.02 0.03 0.05 0.06
0.00 0.00 0.00 0.00 0.00 0.00 0.00 0.00 0.00 0.00 0.00 0.00 0.01 0.01 0.01 0.01 0.01 0.01 0.01 0.02 0.02 0.03 0.03 0.03 0.03 0.03 0.02 0.02 0.02 0.02 0.02 0.02 0.03 0.04 0.03 0.02 0.02 0.02 0.03 0.03 0.03 0.04 0.06
0.00 0.00 0.00 0.00 0.00 0.00 0.00 0.00 0.00 0.00 0.00 0.01 0.01 0.02 0.03 0.03 0.01 0.02 0.03 0.03 0.04 0.04 0.05 0.04 0.03 0.02 0.02 0.01 0.01 0.01 0.01 0.02 0.02 0.02 0.02 0.02 0.03 0.03 0.03 0.03 0.04 0.04 0.04
0.00 0.00 0.00 0.00 0.00 0.00 0.00 0.00 0.00 0.00 0.00 0.00 0.01 0.01 0.01 0.02 0.02 0.02 0.03 0.03 0.04 0.04 0.04 0.03 0.02 0.02 0.02 0.02 0.02 0.02 0.01 0.01 0.01 0.02 0.02 0.02 0.02 0.03 0.03 0.03 0.03 0.04 0.03
0.00 0.00 0.00 0.00 0.00 0.00 0.00 0.00 0.01 0.00 0.00 0.00 0.00 0.00 0.01 0.01 0.01 0.02 0.02 0.03 0.03 0.02 0.02 0.01 0.01 0.01 0.01 0.01 0.02 0.02 0.01 0.01 0.01 0.02 0.02 0.02 0.02 0.03 0.03 0.03 0.03 0.03 0.03
0.00 0.00 0.00 0.00 0.00 0.00 0.00 0.01 0.01 0.01 0.01 0.00 0.00 0.00 0.00 0.00 0.01 0.01 0.02 0.02 0.01 0.01 0.01 0.01 0.01 0.01 0.02 0.02 0.02 0.02 0.02 0.01 0.02 0.02 0.02 0.02 0.02 0.02 0.02 0.02 0.02 0.02 0.02
0.00 0.00 0.00 0.00 0.00 0.00 0.00 0.01 0.01 0.01 0.01 0.01 0.00 0.00 0.00 0.00 0.00 0.01 0.01 0.02 0.02 0.01 0.01 0.01 0.01 0.02 0.02 0.02 0.02 0.02 0.02 0.01 0.01 0.02 0.02 0.01 0.02 0.02 0.02 0.01 0.01 0.01 0.02
0.00 0.00 0.00 0.00 0.00 0.00 0.01 0.01 0.01 0.01 0.01 0.01 0.01 0.00 0.01 0.02 0.02 0.01 0.01 0.01 0.02 0.02 0.01 0.02 0.02 0.02 0.02 0.02 0.02 0.02 0.02 0.01 0.01 0.01 0.01 0.01 0.01 0.01 0.01 0.01 0.01 0.01 0.01
0.00 0.00 0.00 0.00 0.00 0.01 0.01 0.01 0.02 0.02 0.02 0.01 0.01 0.00 0.02 0.04 0.04 0.02 0.01 0.01 0.02 0.02 0.02 0.02 0.02 0.02 0.02 0.02 0.02 0.02 0.02 0.01 0.01 0.01 0.01 0.01 0.01 0.01 0.01 0.01 0.01 0.01 0.01
0.00 0.00 0.00 0.01 0.01 0.01 0.01 0.01 0.01 0.01 0.01 0.01 0.01 0.01 0.01 0.01 0.02 0.02 0.02 0.01 0.01 0.02 0.02 0.02 0.02 0.02 0.02 0.02 0.02 0.02 0.02 0.01 0.01 0.01 0.01 0.01 0.01 0.01 0.01 0.01 0.01 0.01 0.01
0.00 0.00 0.01 0.01 0.01 0.01 0.01 0.01 0.01 0.01 0.01 0.01 0.01 0.01 0.01 0.01 0.02 0.02 0.01 0.01 0.01 0.01 0.02 0.02 0.02 0.02 0.01 0.02 0.02 0.02 0.02 0.01 0.01 0.01 0.01 0.01 0.01 0.01 0.01 0.01 0.01 0.01 0.01
0.01 0.01 0.01 0.01 0.00 0.01 0.01 0.01 0.01 0.01 0.01 0.02 0.01 0.01 0.02 0.02 0.02 0.01 0.01 0.01 0.01 0.01 0.01 0.02 0.02 0.01 0.01 0.01 0.01 0.01 0.01 0.01 0.01 0.01 0.01 0.01 0.01 0.01 0.01 0.01 0.01 0.01 0.01
0.01 0.01 0.01 0.00 0.01 0.01 0.01 0.01 0.01 0.01 0.01 0.01 0.01 0.01 0.02 0.01 0.01 0.01 0.01 0.01 0.02 0.01 0.01 0.01 0.01 0.01 0.01 0.01 0.01 0.01 0.01 0.01 0.01 0.01 0.02 0.02 0.02 0.02 0.02 0.02 0.02 0.02 0.02
0.01 0.00 0.00 0.00 0.01 0.01 0.01 0.01 0.01 0.01 0.02 0.01 0.01 0.01 0.02 0.02 0.01 0.01 0.01 0.02 0.02 0.01 0.01 0.01 0.01 0.01 0.01 0.01 0.01 0.01 0.01 0.01 0.01 0.01 0.02 0.02 0.02 0.02 0.02 0.02 0.02 0.02 0.02
MSLP
1020.68 1020.71 1020.66 1020.53 1020.32 1020.05 1019.74 1019.43 1019.13 1018.85 1018.59 1018.33 1018.05 1017.74 1017.37 1016.96 1016.49 1016.00 1015.49 1015.01 1014.58 1014.20 1013.89 1013.63 1013.39 1013.15 1012.87 1012.53 1012.10 1011.60 1011.04 1010.44 1009.84 1009.29 1008.81 1008.44 1008.18 1008.04 1007.99 1008.00 1008.06 1008.12 1008.17
1020.78 1020.80 1020.72 1020.55 1020.30 1019.98 1019.63 1019.26 1018.91 1018.58 1018.28 1017.99 1017.69 1017.36 1016.98 1016.54 1016.04 1015.50 1014.94 1014.39 1013.88 1013.42 1013.04 1012.72 1012.44 1012.19 1011.92 1011.61 1011.25 1010.81 1010.31 1009.76 1009.20 1008.66 1008.18 1007.79 1007.51 1007.33 1007.24 1007.23 1007.27 1007.32 1007.37
1020.85 1020.83 1020.72 1020.50 1020.20 1019.82 1019.41 1018.98 1018.57 1018.19 1017.85 1017.53 1017.21 1016.86 1016.48 1016.04 1015.53 1014.97 1014.38 1013.78 1013.21 1012.68 1012.22 1011.84 1011.51 1011.23 1010.96 1010.68 1010.35 1009.96 1009.52 1009.04 1008.53 1008.02 1007.56 1007.17 1006.86 1006.66 1006.54 1006.51 1006.52 1006.56 1006.61
1020.84 1020.78 1020.63 1020.36 1020.00 1019.56 1019.09 1018.59 1018.12 1017.69 1017.29 1016.93 1016.59 1016.25 1015.86 1015.43 1014.93 1014.38 1013.77 1013.15 1012.53 1011.95 1011.43 1010.99 1010.61 1010.29 1010.00 1009.72 1009.42 1009.08 1008.70 1008.27 1007.81 1007.36 1006.92 1006.54 1006.23 1006.01 1005.87 1005.81 1005.81 1005.83 1005.87
1020.73 1020.63 1020.43 1020.11 1019.70 1019.21 1018.67 1018.12 1017.58 1017.09 1016.64 1016.24 1015.88 1015.52 1015.14 1014.72 1014.23 1013.69 1013.10 1012.46 1011.83 1011.21 1010.65 1010.15 1009.72 1009.35 1009.04 1008.75 1008.47 1008.17 1007.83 1007.46 1007.05 1006.64 1006.25 1005.89 1005.58 1005.36 1005.20 1005.12 1005.10 1005.11 1005.15
1020.51 1020.37 1020.13 1019.77 1019.32 1018.78 1018.19 1017.59 1017.00 1016.45 1015.96 1015.51 1015.11 1014.73 1014.34 1013.92 1013.45 1012.92 1012.34 1011.71 1011.07 1010.43 1009.83 1009.29 1008.81 1008.41 1008.07 1007.77 1007.49 1007.20 1006.90 1006.58 1006.23 1005.86 1005.51 1005.17 1004.89 1004.66 1004.50 1004.41 1004.38 1004.39 1004.42
1020.18 1020.01 1019.74 1019.36 1018.88 1018.32 1017.70 1017.07 1016.44 1015.84 1015.29 1014.80 1014.35 1013.93 1013.52 1013.08 1012.61 1012.09 1011.51 1010.89 1010.24 1009.59 1008.97 1008.40 1007.88 1007.44 1007.07 1006.75 1006.46 1006.19 1005.92 1005.63 1005.32 1005.00 1004.69 1004.39 1004.12 1003.91 1003.76 1003.66 1003.63 1003.65 1003.69
1019.77 1019.57 1019.28 1018.89 1018.41 1017.85 1017.23 1016.58 1015.93 1015.30 1014.71 1014.16 1013.65 1013.18 1012.73 1012.26 1011.76 1011.23 1010.65 1010.02 1009.37 1008.70 1008.06 1007.46 1006.92 1006.44 1006.04 1005.69 1005.40 1005.13 1004.87 1004.61 1004.35 1004.07 1003.79 1003.53 1003.29 1003.10 1002.96 1002.88 1002.86 1002.89 1002.96
1019.29 1019.07 1018.77 1018.39 1017.93 1017.39 1016.79 1016.15 1015.50 1014.84 1014.21 1013.61 1013.05 1012.52 1012.00 1011.48 1010.94 1010.37 1009.77 1009.12 1008.45 1007.78 1007.12 1006.49 1005.92 1005.41 1004.98 1004.62 1004.31 1004.04 1003.79 1003.55 1003.32 1003.08 1002.84 1002.61 1002.42 1002.25 1002.14 1002.09 1002.09 1002.14 1002.24
1018.77 1018.52 1018.23 1017.87 1017.43 1016.93 1016.37 1015.76 1015.11 1014.45 1013.79 1013.15 1012.53 1011.93 1011.34 1010.76 1010.17 1009.55 1008.91 1008.24 1007.54 1006.85 1006.17 1005.52 1004.92 1004.39 1003.93 1003.54 1003.22 1002.94 1002.70 1002.49 1002.28 1002.07 1001.88 1001.69 1001.54 1001.41 1001.34 1001.32 1001.35 1001.44 1001.57
1018.19 1017.94 1017.65 1017.31 1016.91 1016.45 1015.93 1015.35 1014.73 1014.07 1013.40 1012.73 1012.06 1011.40 1010.75 1010.10 1009.44 1008.77 1008.09 1007.38 1006.66 1005.94 1005.24 1004.57 1003.95 1003.39 1002.91 1002.50 1002.17 1001.89 1001.65 1001.45 1001.27 1001.10 1000.95 1000.81 1000.70 1000.62 1000.58 1000.60 1000.67 1000.79 1000.96
1017.59 1017.32 1017.04 1016.72 1016.35 1015.93 1015.45 1014.90 1014.30 1013.66 1012.98 1012.29 1011.58 1010.87 1010.17 1009.46 1008.75 1008.04 1007.31 1006.57 1005.82 1005.08 1004.36 1003.67 1003.03 1002.46 1001.96 1001.53 1001.19 1000.91 1000.68 1000.50 1000.34 1000.21 1000.10 1000.01 999.94 999.91 999.91 999.97 1000.07 1000.23 1000.43
1016.96 1016.68 1016.39 1016.08 1015.74 1015.34 1014.88 1014.37 1013.79 1013.16 1012.49 1011.78 1011.06 1010.32 1009.58 1008.83 1008.09 1007.33 1006.57 1005.81 1005.04 1004.28 1003.55 1002.85 1002.20 1001.61 1001.10 1000.67 1000.31 1000.03 999.81 999.65 999.52 999.43 999.36 999.31 999.29 999.30 999.35 999.43 999.57 999.74 999.96
1016.32 1016.03 1015.73 1015.42 1015.08 1014.69 1014.24 1013.74 1013.18 1012.56 1011.89 1011.19 1010.46 1009.71 1008.95 1008.19 1007.42 1006.64 1005.87 1005.09 1004.31 1003.55 1002.81 1002.11 1001.45 1000.86 1000.35 999.91 999.56 999.28 999.08 998.93 998.83 998.77 998.74 998.73 998.75 998.80 998.88 998.99 999.14 999.33 999.55
1015.70 1015.39 1015.08 1014.75 1014.39 1014.00 1013.55 1013.05 1012.49 1011.88 1011.22 1010.52 1009.80 1009.05 1008.29 1007.52 1006.75 1005.97 1005.19 1004.42 1003.65 1002.89 1002.15 1001.46 1000.81 1000.22 999.71 999.28 998.93 998.67 998.48 998.35 998.27 998.24 998.24 998.27 998.32 998.40 998.50 998.63 998.78 998.97 999.17
1015.11 1014.79 1014.45 1014.10 1013.72 1013.31 1012.84 1012.33 1011.77 1011.16 1010.51 1009.81 1009.10 1008.36 1007.61 1006.85 1006.09 1005.32 1004.55 1003.79 1003.03 1002.29 1001.58 1000.90 1000.27 999.70 999.20 998.78 998.45 998.19 998.01 997.90 997.85 997.84 997.86 997.91 997.99 998.08 998.19 998.33 998.47 998.64 998.82
1014.56 1014.23 1013.88 1013.50 1013.10 1012.65 1012.17 1011.65 1011.07 1010.46 1009.81 1009.13 1008.42 1007.69 1006.95 1006.21 1005.46 1004.71 1003.96 1003.21 1002.48 1001.77 1001.08 1000.43 999.83 999.28 998.81 998.41 998.09 997.85 997.69 997.59 997.55 997.55 997.59 997.65 997.74 997.84 997.95 998.07 998.20 998.35 998.49
1014.05 1013.71 1013.34 1012.95 1012.53 1012.06 1011.57 1011.03 1010.45 1009.84 1009.19 1008.51 1007.81 1007.09 1006.36 1005.63 1004.89 1004.15 1003.42 1002.70 1002.00 1001.32 1000.67 1000.05 999.49 998.98 998.54 998.17 997.88 997.65 997.50 997.41 997.37 997.37 997.41 997.48 997.56 997.65 997.75 997.86 997.97 998.08 998.19
1013.53 1013.20 1012.83 1012.43 1012.00 1011.53 1011.03 1010.49 1009.91 1009.30 1008.66 1007.99 1007.29 1006.58 1005.85 1005.13 1004.40 1003.68 1002.96 1002.27 1001.60 1000.95 1000.34 999.77 999.25 998.79 998.39 998.05 997.78 997.58 997.43 997.34 997.30 997.30 997.33 997.38 997.45 997.53 997.61 997.69 997.78 997.86 997.93
1012.99 1012.66 1012.29 1011.90 1011.48 1011.03 1010.54 1010.01 1009.45 1008.85 1008.22 1007.56 1006.87 1006.16 1005.44 1004.71 1003.99 1003.27 1002.58 1001.91 1001.27 1000.66 1000.10 999.58 999.12 998.70 998.35 998.05 997.81 997.61 997.48 997.38 997.33 997.31 997.32 997.35 997.40 997.45 997.52 997.58 997.63 997.68 997.71
1012.37 1012.05 1011.70 1011.33 1010.93 1010.51 1010.05 1009.56 1009.03 1008.45 1007.84 1007.19 1006.51 1005.81 1005.09 1004.36 1003.65 1002.94 1002.26 1001.61 1001.01 1000.44 999.93 999.47 999.06 998.70 998.39 998.13 997.91 997.73 997.60 997.50 997.43 997.39 997.37 997.38 997.40 997.42 997.46 997.49 997.52 997.53 997.52
1011.65 1011.33 1011.01 1010.67 1010.31 1009.93 1009.52 1009.08 1008.59 1008.05 1007.47 1006.84 1006.18 1005.49 1004.77 1004.05 1003.34 1002.65 1001.98 1001.36 1000.79 1000.27 999.81 999.40 999.05 998.74 998.47 998.25 998.06 997.89 997.76 997.64 997.56 997.49 997.45 997.42 997.41 997.41 997.41 997.42 997.41 997.39 997.34
1010.81 1010.51 1010.21 1009.91 1009.60 1009.27 1008.92 1008.52 1008.08 1007.60 1007.05 1006.46 1005.82 1005.15 1004.45 1003.74 1003.05 1002.37 1001.73 1001.14 1000.60 1000.13 999.71 999.35 999.05 998.78 998.56 998.36 998.18 998.03 997.89 997.77 997.66 997.56 997.49 997.43 997.39 997.36 997.34 997.31 997.27 997.21 997.11
1009.90 1009.61 1009.33 1009.07 1008.80 1008.52 1008.22 1007.89 1007.50 1007.06 1006.57 1006.01 1005.41 1004.76 1004.09 1003.41 1002.73 1002.08 1001.46 1000.90 1000.40 999.97 999.59 999.28 999.01 998.78 998.58 998.41 998.24 998.09 997.94 997.81 997.68 997.56 997.45 997.37 997.30 997.23 997.18 997.12 997.04 996.93 996.78
1008.96 1008.68 1008.42 1008.18 1007.96 1007.72 1007.46 1007.17 1006.84 1006.45 1006.00 1005.49 1004.92 1004.31 1003.67 1003.02 1002.38 1001.76 1001.17 1000.65 1000.18 999.77 999.43 999.14 998.90 998.69 998.51 998.35 998.19 998.03 997.88 997.72 997.57 997.43 997.30 997.19 997.09 996.99 996.90 996.80 996.68 996.52 996.31
1008.06 1007.78 1007.54 1007.32 1007.11 1006.90 1006.68 1006.43 1006.13 1005.77 1005.37 1004.90 1004.37 1003.80 1003.21 1002.59 1001.99 1001.40 1000.85 1000.35 999.91 999.53 999.21 998.93 998.71 998.51 998.33 998.16 998.00 997.84 997.67 997.50 997.33 997.17 997.02 996.88 996.75 996.62 996.49 996.35 996.18 995.96 995.69
Thickness
5564 5560 5557 5555 5551 5548 5545 5542 5538 5535 5531 5528 5524 5520 5516 5512 5507 5502 5497 5492 5486 5481 5475 5469 5465 5457 5452 5447 5441 5436 5432 5426 5430 5456 5451 5445 5440 5439 5438 5435 5435 5436 5440
5553 5550 5547 5544 5540 5537 5534 5530 5526 5523 5519 5514 5510 5505 5501 5495 5489 5484 5480 5474 5468 5463 5456 5450 5445 5437 5432 5426 5420 5416 5412 5408 5405 5418 5431 5423 5419 5417 5416 5415 5415 5416 5420
5543 5539 5537 5533 5530 5526 5522 5518 5513 5509 5505 5500 5495 5490 5484 5478 5471 5465 5459 5454 5448 5442 5435 5429 5424 5416 5413 5407 5402 5398 5395 5391 5388 5392 5406 5404 5400 5397 5396 5397 5397 5398 5402
5531 5528 5525 5522 5518 5513 5509 5504 5500 5495 5490 5485 5479 5473 5467 5460 5452 5445 5437 5431 5425 5420 5413 5408 5403 5398 5394 5389 5386 5383 5380 5377 5376 5376 5383 5386 5384 5381 5378 5380 5382 5383 5386
5521 5517 5513 5509 5504 5500 5495 5491 5486 5480 5475 5469 5463 5457 5450 5442 5434 5425 5417 5412 5407 5403 5399 5393 5389 5384 5380 5376 5373 5372 5367 5365 5364 5364 5367 5370 5371 5367 5366 5366 5367 5370 5374
5510 5506 5501 5496 5491 5486 5482 5477 5472 5466 5461 5454 5447 5440 5434 5426 5418 5409 5401 5398 5395 5391 5388 5384 5380 5376 5373 5370 5368 5366 5363 5358 5357 5356 5358 5359 5361 5359 5357 5356 5356 5357 5361
5498 5494 5488 5483 5478 5473 5468 5463 5458 5453 5447 5440 5432 5425 5419 5412 5402 5394 5387 5383 5382 5379 5376 5374 5372 5370 5366 5364 5362 5360 5358 5356 5354 5351 5351 5353 5352 5352 5349 5349 5348 5349 5353
5487 5482 5477 5470 5465 5460 5455 5449 5444 5439 5432 5425 5418 5410 5404 5398 5388 5381 5375 5372 5371 5369 5367 5364 5363 5363 5360 5357 5355 5353 5351 5350 5347 5345 5345 5346 5344 5344 5341 5340 5341 5340 5342
5476 5470 5464 5458 5452 5447 5441 5436 5430 5424 5418 5410 5402 5395 5389 5385 5376 5369 5363 5362 5362 5362 5360 5359 5357 5357 5356 5353 5351 5350 5349 5348 5345 5344 5343 5343 5342 5341 5338 5335 5334 5333 5336
5464 5458 5451 5445 5439 5433 5428 5422 5415 5408 5402 5395 5389 5381 5375 5372 5366 5359 5354 5353 5354 5355 5355 5354 5352 5352 5352 5350 5348 5346 5346 5345 5343 5342 5340 5340 5338 5337 5335 5332 5330 5329 5330
5451 5445 5438 5432 5426 5420 5414 5407 5400 5393 5387 5382 5377 5372 5365 5361 5357 5352 5347 5345 5346 5347 5349 5349 5349 5348 5348 5347 5346 5345 5344 5343 5342 5340 5339 5337 5334 5332 5329 5326 5324 5322 5323
5439 5433 5427 5420 5413 5405 5399 5393 5385 5378 5373 5369 5365 5362 5357 5353 5349 5346 5343 5341 5340 5341 5343 5344 5345 5344 5344 5344 5343 5343 5343 5341 5339 5338 5336 5335 5332 5329 5326 5322 5319 5317 5315
5426 5421 5415 5408 5400 5392 5385 5379 5372 5364 5358 5355 5351 5350 5350 5347 5343 5340 5339 5337 5336 5336 5337 5339 5340 5341 5342 5342 5341 5340 5338 5336 5335 5333 5332 5331 5328 5325 5321 5316 5313 5309 5307
5414 5409 5402 5396 5389 5381 5373 5365 5357 5351 5346 5342 5339 5339 5340 5340 5337 5335 5334 5333 5333 5333 5333 5335 5336 5338 5337 5336 5336 5335 5332 5330 5328 5326 5325 5323 5320 5317 5313 5310 5306 5303 5300
5402 5396 5390 5383 5376 5370 5362 5354 5346 5341 5332 5330 5329 5328 5329 5332 5331 5328 5327 5328 5328 5329 5330 5332 5333 5334 5334 5333 5331 5329 5327 5324 5322 5320 5317 5315 5313 5309 5306 5302 5298 5295 5293
5389 5383 5377 5369 5363 5356 5351 5347 5341 5333 5329 5324 5322 5320 5322 5323 5324 5324 5324 5325 5325 5326 5326 5328 5328 5328 5328 5327 5325 5324 5322 5319 5316 5313 5310 5308 5305 5302 5299 5295 5290 5287 5285
5373 5368 5361 5355 5348 5342 5337 5334 5335 5333 5326 5322 5320 5318 5317 5318 5319 5319 5320 5321 5322 5322 5321 5321 5321 5320 5320 5319 5318 5317 5315 5312 5308 5305 5303 5300 5297 5294 5291 5288 5284 5281 5278
5360 5353 5346 5341 5335 5330 5325 5322 5320 5321 5322 5322 5319 5315 5314 5314 5314 5314 5315 5316 5317 5316 5314 5314 5313 5313 5313 5312 5311 5310 5308 5305 5302 5298 5295 5293 5290 5287 5284 5282 5278 5275 5272
5347 5341 5334 5328 5323 5319 5315 5313 5312 5311 5312 5313 5314 5314 5312 5311 5310 5310 5310 5309 5309 5309 5308 5308 5307 5306 5306 5305 5304 5302 5301 5298 5295 5292 5289 5285 5283 5280 5277 5274 5271 5268 5263
5335 5328 5320 5316 5313 5310 5307 5305 5304 5304 5305 5306 5307 5307 5306 5305 5307 5307 5306 5304 5303 5303 5302 5302 5301 5300 5299 5298 5297 5295 5294 5291 5288 5285 5282 5279 5276 5273 5270 5266 5263 5260 5257
5323 5318 5311 5306 5303 5301 5299 5298 5298 5298 5299 5300 5301 5300 5299 5298 5300 5301 5301 5300 5299 5298 5297 5296 5296 5295 5293 5292 5290 5289 5286 5285 5282 5279 5276 5273 5269 5266 5263 5259 5257 5253 5250
5310 5307 5303 5299 5297 5295 5294 5293 5293 5293 5293 5294 5296 5296 5295 5294 5295 5296 5296 5296 5295 5293 5292 5291 5290 5290 5288 5286 5284 5282 5281 5279 5276 5273 5269 5266 5262 5259 5256 5253 5250 5247 5244
5300 5297 5295 5293 5291 5290 5289 5289 5288 5288 5289 5289 5290 5291 5291 5291 5292 5292 5292 5291 5291 5290 5289 5287 5286 5285 5283 5280 5278 5276 5275 5273 5270 5267 5263 5260 5257 5254 5251 5248 5245 5241 5239
5292 5290 5288 5287 5286 5285 5285 5285 5285 5285 5285 5285 5285 5286 5286 5287 5287 5288 5288 5288 5287 5286 5285 5284 5282 5281 5278 5276 5274 5272 5269 5267 5263 5260 5256 5254 5252 5249 5246 5243 5241 5239 5235
5285 5283 5282 5281 5281 5280 5280 5281 5281 5281 5281 5281 5281 5282 5282 5283 5284 5284 5285 5284 5283 5283 5282 5281 5279 5277 5275 5273 5270 5268 5265 5262 5259 5256 5252 5250 5247 5244 5241 5239 5237 5235 5232
5279 5277 5276 5276 5276 5275 5275 5276 5277 5277 5277 5278 5277 5277 5278 5279 5280 5281 5281 5281 5280 5280 5279 5278 5276 5274 5272 5270 5268 5265 5262 5260 5257 5253 5250 5247 5244 5242 5238 5236 5233 5231 5229